Weather History for KOSU - October, 2012

Change the Weather History Date:

Tuesday, October 9, 2012

  Actual Average Record
Temperature  
Mean Temperature 46 °F -  
Max Temperature 60 °F 65 °F 84 °F (2010)
Min Temperature 33 °F 43 °F 28 °F (2000)
Degree Days  
Heating Degree Days 19    
Moisture  
Dew Point 37 °F    
Average Humidity 84    
Maximum Humidity 100    
Minimum Humidity 46    
Precipitation  
Precipitation 0.00 in - - ()
Sea Level Pressure  
Sea Level Pressure 30.14 in    
Wind  
Wind Speed 4 mph (South)    
Max Wind Speed 14 mph    
Max Gust Speed 20 mph    
Visibility 6 miles    
Events Fog    
Averages and records for this station are not official NWS values.
T = Trace of Precipitation, MM = Missing Value Source: NWS Daily Summary

Daily Weather History Graph

Daily Weather History Graph

Search for Another Location

Airport or City:

Trip Planner

Search our weather history database for the weather conditions in past years. The results will help you decide how hot, cold, wet, or windy it might be!

Date:

Astronomy

Oct. 09, 2012 Rise Set
Actual Time 7:37 AM EDT 7:01 PM EDT
Civil Twilight 7:09 AM EDT 7:28 PM EDT
Nautical Twilight 6:38 AM EDT 7:59 PM EDT
Astronomical Twilight 6:07 AM EDT 8:30 PM EDT
Moon 1:12 AM EDT (10/9) 3:27 PM EDT (10/9)
Length of Visible Light 12h 18m
Length of Day
11h 23m
Last Quarter, 37% of the Moon is Illuminated
Oct 9
Last Quarter
Oct 15
New
Oct 21
First Quarter
Oct 29
Full
Nov 6
Last Quarter

Hourly Weather History & Observations

Time (EDT) Temp. Windchill Dew Point Humidity Pressure Visibility Wind Dir Wind Speed Gust Speed Precip Events Conditions
12:53 AM 41.0 °F - 37.9 °F 89% 30.19 in 10.0 mi Calm Calm - N/A   Clear
1:53 AM 39.0 °F 34.8 °F 37.0 °F 93% 30.19 in 9.0 mi SE 5.8 mph - N/A   Clear
2:53 AM 39.0 °F - 37.0 °F 93% 30.19 in 7.0 mi Calm Calm - N/A   Clear
3:53 AM 37.0 °F - 37.0 °F 100% 30.18 in 4.0 mi Calm Calm - N/A   Clear
4:20 AM 35.6 °F - 35.6 °F 100% 30.16 in 2.0 mi Calm Calm - N/A   Clear
4:31 AM 35.6 °F - 35.6 °F 100% 30.16 in 4.0 mi Calm Calm - N/A   Clear
5:14 AM 35.6 °F - 35.6 °F 100% 30.16 in 1.8 mi Calm Calm - N/A   Clear
5:28 AM 33.8 °F - 33.8 °F 100% 30.16 in 3.0 mi Calm Calm - N/A   Clear
5:53 AM 35.1 °F 32.2 °F 35.1 °F 100% 30.18 in 5.0 mi SSE 3.5 mph - N/A   Clear
6:28 AM 33.8 °F - 33.8 °F 100% 30.17 in 1.8 mi Calm Calm - N/A   Clear
6:38 AM 33.8 °F - 33.8 °F 100% 30.17 in 3.0 mi Calm Calm - N/A   Clear
6:53 AM 33.1 °F - 33.1 °F 100% 30.19 in 3.0 mi Calm Calm - N/A   Clear
6:57 AM 33.8 °F 30.8 °F 33.8 °F 100% 30.18 in 1.5 mi SW 3.5 mph - N/A   Clear
7:04 AM 35.6 °F 32.8 °F 33.8 °F 93% 30.18 in 1.0 mi SSW 3.5 mph - N/A   Mist
7:12 AM 35.6 °F 31.7 °F 35.6 °F 100% 30.18 in 0.2 mi SSW 4.6 mph - N/A Fog Fog
7:19 AM 35.6 °F 31.7 °F 35.6 °F 100% 30.18 in 0.2 mi South 4.6 mph - N/A Fog Fog
7:53 AM 36.0 °F - 36.0 °F 100% 30.21 in 0.2 mi Calm Calm - N/A Fog Fog
8:41 AM 37.4 °F 33.8 °F 37.4 °F 100% 30.19 in 0.2 mi SE 4.6 mph - N/A Fog Fog
8:53 AM 37.9 °F 34.4 °F 37.9 °F 100% 30.20 in 0.2 mi SSE 4.6 mph - N/A Fog Fog
9:39 AM 39.2 °F 34.2 °F 39.2 °F 100% 30.18 in 0.8 mi SSE 6.9 mph - N/A   Overcast
9:48 AM 39.2 °F 33.6 °F 39.2 °F 100% 30.18 in 1.5 mi SSE 8.1 mph - N/A   Overcast
9:53 AM 41.0 °F 35.8 °F 41.0 °F 100% 30.20 in 2.0 mi SSE 8.1 mph - N/A   Overcast
10:13 AM 42.8 °F 38.6 °F 41.0 °F 93% 30.18 in 3.0 mi South 6.9 mph - N/A   Overcast
10:48 AM 44.6 °F 41.4 °F 41.0 °F 87% 30.19 in 6.0 mi South 5.8 mph - N/A   Scattered Clouds
10:53 AM 44.1 °F 40.1 °F 41.0 °F 89% 30.20 in 7.0 mi South 6.9 mph - N/A   Partly Cloudy
11:53 AM 50.0 °F - 41.0 °F 71% 30.18 in 10.0 mi South 6.9 mph - N/A   Clear
12:53 PM 54.0 °F - 39.9 °F 59% 30.15 in 10.0 mi South 6.9 mph - N/A   Clear
1:53 PM 55.9 °F - 39.0 °F 53% 30.11 in 10.0 mi SSW 10.4 mph 18.4 mph N/A   Partly Cloudy
2:53 PM 57.9 °F - 39.9 °F 51% 30.06 in 10.0 mi Variable 6.9 mph - N/A   Clear
3:53 PM 59.0 °F - 39.9 °F 49% 30.04 in 10.0 mi South 10.4 mph - N/A   Clear
4:53 PM 59.0 °F - 39.0 °F 48% 30.04 in 10.0 mi South 13.8 mph - N/A   Clear
5:53 PM 57.9 °F - 37.0 °F 46% 30.02 in 10.0 mi SSE 11.5 mph - N/A   Clear
6:53 PM 55.9 °F - 37.0 °F 49% 30.02 in 10.0 mi South 12.7 mph - N/A   Clear
7:53 PM 53.1 °F - 36.0 °F 52% 30.02 in 10.0 mi South 10.4 mph 19.6 mph N/A   Clear
8:53 PM 51.1 °F - 35.1 °F 54% 30.02 in 10.0 mi South 12.7 mph - N/A   Clear
9:53 PM 48.9 °F - 36.0 °F 61% 30.02 in 10.0 mi South 9.2 mph - N/A   Clear
10:53 PM 48.0 °F - 37.9 °F 68% 30.01 in 10.0 mi South 8.1 mph - N/A   Clear
11:53 PM 46.0 °F 41.4 °F 39.0 °F 76% 29.98 in 10.0 mi South 9.2 mph - N/A   Clear